Find Starlink 33832

NORAD ID: 63637 Int'l Des: 2025-083 Owner: SPXS Country: US Constellation: starlink operational
LEOCIRCULAR

当前视图

正在加载3D地球...

About Starlink 33832

Starlink 33832 (NORAD 63637) is a starlink constellation satellite (v2 mini) launched Apr 25, 2025 by SPXS of US. It operates in LEO, CIRCULAR orbit with a mass of 575.00 kg.

关于 Starlink 33832

正在加载描述...

即将过境

Passes for default location (London). Set your location on the main map for personalized predictions.

高度历史

Loading altitude history...

两行轨道根数

1 63637U 25083D 26170.32068504 .00021160 00000-0 77600-3 0 9990
2 63637 43.0032 150.9417 0001589 263.5253 96.5418 15.27591441 65615
Epoch: Jun 19, 2026 • Age: 16 hours

当前状态

高度 485.4 km
速度 7.63 km/s
星下点 35.78°N, 9.91°E
发射日期 Apr 25, 2025
运行时间 1.1 years
类型 internet

技术详情

分类 Payload
质量 575.00 kg
干质量 530.00 kg
总质量 575.00 kg
长度 0.30 m
直径 4.10 m
跨度 29.00 m
形状 Box + pan
制造商 SPXS
平台类型 Starlink V2MO
阶段状态 In Orbit
所有者/国家 SPXS/US

Most Searched